Regional Weather Roundup
Issued by NWS

Home | Current Version | Previous Version | Graphics & Text | Print | Product List | Glossary On
Versions: 1 2 3 4 5 6 7 8 9 10 11 12 13 14 15 16 17 18 19 20 21 22 23 24 25 26 27 28 29 30 31 32 33 34 35 36 37 38 39 40 41 42 43 44 45 46 47 48 49 50
000
ASUS43 KFSD 230210
RWRSD

WEATHER ROUNDUP FOR SOUTH DAKOTA
NATIONAL WEATHER SERVICE SIOUX FALLS SD
800 PM CST THU FEB 22 2018

NOTE: "FAIR" INDICATES FEW OR NO CLOUDS BELOW 12,000 FEET WITH NO
SIGNIFICANT WEATHER AND/OR OBSTRUCTIONS TO VISIBILITY.


SDZ001>005-009-010-012>017-230300-
NORTHWEST AND NORTH CENTRAL SOUTH DAKOTA

CITY           SKY/WX    TMP DP  RH WIND       PRES   REMARKS
BUFFALO          N/A      9   0  67 NW6       30.06R WCI  -1
FAITH            N/A      6   3  87 N6        30.12R WCI  -4
$$

SDZ012>016-024>037-041>051-057-063-072>074-230300-
SOUTHWEST AND SOUTH CENTRAL SOUTH DAKOTA

CITY           SKY/WX    TMP DP  RH WIND       PRES   REMARKS
RAPID CTY ARPT PTCLDY     4  -2  76 NW7       30.08R WCI  -8
PIERRE         LGT SNOW  20  19  96 E3        30.14F FOG
CUSTER         PTCLDY    17   7  64 W3        29.93R
ELLSWORTH AFB  PTCLDY     2  -3  80 W6        30.07R WCI  -9
PHILIP         LGT SNOW   9   6  88 NW12      30.13F FOG     WCI  -6
PINE RIDGE     MOCLDY    15  13  91 CALM      30.06R
SPEARFISH        N/A     10   3  72 W8        30.06R WCI  -1
WINNER         LGT SNOW  23  19  85 CALM      30.12R FOG
$$

SDZ004>011-016>023-039-040-230300-
NORTHEAST SOUTH DAKOTA

CITY           SKY/WX    TMP DP  RH WIND       PRES   REMARKS
ABERDEEN       LGT SNOW  25  23  92 NE7       30.21F FOG     WCI  17
WATERTOWN      LGT SNOW  20  18  92 E7        30.17F FOG     WCI  11
BROOKINGS      LGT SNOW  21  19  93 E13       30.17S FOG     WCI   9
SISSETON         N/A     22  21  96 E5        30.23F WCI  16
$$

SDZ017-020-022-023-036>040-048>070-230300-
SOUTHEAST SOUTH DAKOTA

CITY           SKY/WX    TMP DP  RH WIND       PRES   REMARKS
SIOUX FALLS    SNOW      25  24  96 CALM      30.18S VSB 1/2
HURON          LGT SNOW  23  22  96 CALM      30.18F FOG
CHAMBERLAIN    FLURRIES  22  22  98 E3        30.15S
MITCHELL       LGT SNOW  22  21  96 CALM      30.20R FOG
YANKTON        LGT SNOW  25  21  86 NE3       30.17F FOG
$$

ABBREVIATIONS USED IN REMARKS
   TC - TEMPERATURE IN CELSIUS
  WCI - WIND CHILL INDEX
   HX - HEAT INDEX
  VSB - VISIBILITY





USA.gov is the U.S. government's official web portal to all federal, state and local government web resources and services.